DW6016 Weather Reports


Display with metric or nautical units.
time (UTC)temp
F
wind
direction
speed
MPH
gust
MPH
rain 1hr
in
rain 24hr
in
rain mn
in
humidity
%
barometer
mb
20210727013104 86 63 1.0 2.0 0.00 0.00 0.00 40 1014.6
20210727012602 86 27 2.0 3.0 0.00 0.00 0.00 39 1014.6
20210727012102 86 155 2.0 2.0 0.00 0.00 0.00 38 1014.8
20210727011601 87 212 2.0 2.0 0.00 0.00 0.00 36 1014.5
20210727011059 87 71 1.0 1.0 0.00 0.00 0.00 38 1014.6
20210727010558 87 113 2.0 3.0 0.00 0.00 0.00 37 1014.8
20210727010056 87 124 1.0 2.0 0.00 0.00 0.00 38 1014.6
20210727005555 87 28 1.0 2.0 0.00 0.00 0.00 38 1014.6
20210727005054 87 329 1.0 2.0 0.00 0.00 0.00 38 1014.5
20210727004554 88 229 2.0 3.0 0.00 0.00 0.00 39 1014.6
20210727004054 88 145 2.0 2.0 0.00 0.00 0.00 39 1014.5
20210727003553 88 65 1.0 1.0 0.00 0.00 0.00 39 1014.5
20210727003051 88 251 1.0 1.0 0.00 0.00 0.00 39 1014.6
20210727002550 88 58 2.0 5.0 0.00 0.00 0.00 37 1014.6
20210727002044 89 64 1.0 2.0 0.00 0.00 0.00 37 1014.6
20210727001543 90 170 3.0 3.0 0.00 0.00 0.00 36 1014.7
20210727001042 89 55 2.0 2.0 0.00 0.00 0.00 37 1014.5
20210727000541 89 114 2.0 2.0 0.00 0.00 0.00 36 1014.6
20210727000039 88 70 1.0 2.0 0.00 0.00 0.00 38 1014.6
20210726235536 89 132 1.0 1.0 0.00 0.00 0.00 36 1014.8
20210726235036 89 212 3.0 3.0 0.00 0.00 0.00 35 1014.9
20210726234535 89 357 3.0 5.0 0.00 0.00 0.00 37 1014.8
20210726234035 89 110 1.0 2.0 0.00 0.00 0.00 35 1014.8
20210726233532 89 102 1.0 2.0 0.00 0.00 0.00 38 1014.8
20210726233031 89 86 1.0 1.0 0.00 0.00 0.00 38 1014.8
20210726232530 89 277 3.0 3.0 0.00 0.00 0.00 36 1014.9
20210726232028 88 55 2.0 2.0 0.00 0.00 0.00 39 1015.1
20210726231525 88 264 3.0 3.0 0.00 0.00 0.00 38 1014.7
20210726231024 88 292 6.0 8.0 0.00 0.00 0.00 39 1014.9
20210726230523 89 121 2.0 2.0 0.00 0.00 0.00 38 1015.1
20210726230022 89 130 1.0 2.0 0.00 0.00 0.00 39 1014.9
20210726225518 88 130 2.0 2.0 0.00 0.00 0.00 38 1015.1
20210726225014 88 80 1.0 1.0 0.00 0.00 0.00 39 1015.1
20210726224513 88 66 0.0 0.0 0.00 0.00 0.00 39 1015.2
20210726224012 88 84 0.0 1.0 0.00 0.00 0.00 41 1015.3
20210726223511 87 73 1.0 2.0 0.00 0.00 0.00 41 1015.3
20210726223008 88 334 3.0 3.0 0.00 0.00 0.00 41 1015.3
20210726222506 88 108 2.0 2.0 0.00 0.00 0.00 43 1015.4
20210726222005 87 95 2.0 2.0 0.00 0.00 0.00 40 1015.4
20210726221502 87 109 0.0 1.0 0.00 0.00 0.00 43 1015.3
20210726221001 87 87 0.0 1.0 0.00 0.00 0.00 42 1015.6
20210726220500 88 87 1.0 1.0 0.00 0.00 0.00 42 1015.5
20210726220000 87 105 1.0 1.0 0.00 0.00 0.00 43 1015.7
20210726215459 87 82 1.0 2.0 0.00 0.00 0.00 43 1015.6
20210726214959 88 107 2.0 3.0 0.00 0.00 0.00 41 1015.7
20210726214458 87 99 0.0 1.0 0.00 0.00 0.00 42 1015.7
20210726213956 87 61 1.0 2.0 0.00 0.00 0.00 44 1015.7
20210726213454 87 105 1.0 1.0 0.00 0.00 0.00 41 1015.9
20210726212953 87 123 2.0 3.0 0.00 0.00 0.00 44 1016.1
20210726212452 85 81 1.0 1.0 0.00 0.00 0.00 45 1016.0
20210726211950 85 87 2.0 3.0 0.00 0.00 0.00 45 1016.1
20210726211449 85 71 1.0 1.0 0.00 0.00 0.00 46 1016.3
20210726210947 84 119 1.0 2.0 0.00 0.00 0.00 48 1016.0
20210726210446 84 184 4.0 5.0 0.00 0.00 0.00 46 1016.2
20210726205945 84 76 1.0 1.0 0.00 0.00 0.00 45 1016.5
20210726205445 83 83 2.0 2.0 0.00 0.00 0.00 46 1016.3
20210726204943 81 104 1.0 1.0 0.00 0.00 0.00 51 1016.5
20210726204440 82 72 0.0 1.0 0.00 0.00 0.00 47 1016.8
20210726203940 82 159 1.0 1.0 0.00 0.00 0.00 48 1016.3
20210726203437 81 72 0.0 0.0 0.00 0.00 0.00 48 1016.8
20210726202936 81 56 1.0 2.0 0.00 0.00 0.00 51 1016.6
20210726202435 81 143 2.0 2.0 0.00 0.00 0.00 52 1016.8
20210726201929 81 93 2.0 2.0 0.00 0.00 0.00 51 1016.8
20210726201428 81 179 3.0 3.0 0.00 0.00 0.00 49 1016.8
20210726200927 80 84 1.0 1.0 0.00 0.00 0.00 54 1016.6
20210726200426 81 143 3.0 5.0 0.00 0.00 0.00 50 1016.8
20210726195925 80 80 2.0 2.0 0.00 0.00 0.00 52 1017.0
20210726195423 80 65 2.0 5.0 0.00 0.00 0.00 50 1017.0
20210726194922 79 105 1.0 1.0 0.00 0.00 0.00 53 1017.1
20210726194421 80 77 3.0 3.0 0.00 0.00 0.00 52 1016.9
20210726193921 80 91 0.0 1.0 0.00 0.00 0.00 52 1017.2
20210726193420 79 82 1.0 1.0 0.00 0.00 0.00 53 1017.1
20210726192919 78 121 2.0 3.0 0.00 0.00 0.00 54 1017.3
20210726192418 78 68 1.0 1.0 0.00 0.00 0.00 55 1017.2
20210726191917 78 77 1.0 2.0 0.00 0.00 0.00 55 1017.4
20210726191416 78 100 0.0 1.0 0.00 0.00 0.00 55 1017.4
20210726190915 77 107 1.0 2.0 0.00 0.00 0.00 56 1017.5
20210726190414 76 91 1.0 2.0 0.00 0.00 0.00 58 1017.5
20210726185913 78 127 2.0 2.0 0.00 0.00 0.00 54 1017.6
20210726185412 76 55 1.0 1.0 0.00 0.00 0.00 59 1017.4
20210726184911 76 292 2.0 3.0 0.00 0.00 0.00 56 1017.5
20210726184410 75 113 1.0 2.0 0.00 0.00 0.00 58 1017.6
20210726183910 75 63 1.0 1.0 0.00 0.00 0.00 58 1017.7
20210726183408 75 254 1.0 2.0 0.00 0.00 0.00 57 1017.7
20210726182907 75 182 3.0 3.0 0.00 0.00 0.00 57 1017.7
20210726182406 75 156 3.0 3.0 0.00 0.00 0.00 58 1017.8
20210726181903 74 83 1.0 1.0 0.00 0.00 0.00 59 1017.8
20210726181402 74 88 1.0 1.0 0.00 0.00 0.00 61 1017.8
20210726180900 74 356 1.0 2.0 0.00 0.00 0.00 58 1017.7
20210726180358 74 108 1.0 1.0 0.00 0.00 0.00 61 1017.8
20210726175856 74 84 1.0 2.0 0.00 0.00 0.00 61 1017.8
20210726175352 72 96 0.0 1.0 0.00 0.00 0.00 64 1018.0
20210726174852 72 72 1.0 2.0 0.00 0.00 0.00 63 1017.9
20210726174345 71 269 3.0 3.0 0.00 0.00 0.00 63 1017.7
20210726173845 72 79 1.0 1.0 0.00 0.00 0.00 63 1017.7
20210726173345 71 87 0.0 0.0 0.00 0.00 0.00 65 1018.0
20210726172843 70 77 0.0 0.0 0.00 0.00 0.00 65 1017.9
20210726172341 69 90 3.0 3.0 0.00 0.00 0.00 68 1018.0
20210726171841 69 81 0.0 1.0 0.00 0.00 0.00 70 1018.2
20210726171339 69 78 1.0 1.0 0.00 0.00 0.00 67 1018.2
20210726170839 69 71 0.0 1.0 0.00 0.00 0.00 68 1018.2
20210726170338 69 79 1.0 2.0 0.00 0.00 0.00 69 1018.2
20210726165837 68 95 1.0 1.0 0.00 0.00 0.00 70 1018.5
20210726165334 66 74 1.0 1.0 0.00 0.00 0.00 73 1018.4
20210726164832 66 82 0.0 1.0 0.00 0.00 0.00 74 1018.4
20210726164331 67 122 1.0 2.0 0.00 0.00 0.00 72 1018.5
20210726163831 68 71 1.0 1.0 0.00 0.00 0.00 70 1018.7
20210726163330 67 89 2.0 2.0 0.00 0.00 0.00 73 1018.4
20210726162829 67 76 1.0 1.0 0.00 0.00 0.00 72 1018.6
20210726162312 64 80 1.0 1.0 0.00 0.00 0.00 76 1018.5
20210726161812 64 87 0.0 2.0 0.00 0.00 0.00 77 1018.4
20210726161311 64 77 0.0 0.0 0.00 0.00 0.00 78 1018.5
20210726160809 64 117 3.0 3.0 0.00 0.00 0.00 76 1018.5
20210726160309 64 92 1.0 1.0 0.00 0.00 0.00 78 1018.6
20210726155808 66 85 1.0 1.0 0.00 0.00 0.00 75 1018.7
20210726155307 66 67 2.0 2.0 0.00 0.00 0.00 73 1018.6
20210726154805 65 79 1.0 1.0 0.00 0.00 0.00 75 1018.4
20210726154303 64 105 3.0 3.0 0.00 0.00 0.00 78 1018.5
20210726153800 63 85 2.0 2.0 0.00 0.00 0.00 78 1018.4
20210726153259 63 100 0.0 1.0 0.00 0.00 0.00 81 1018.4
20210726152758 63 95 0.0 1.0 0.00 0.00 0.00 82 1018.5
20210726152258 62 125 1.0 2.0 0.00 0.00 0.00 82 1018.6
20210726151757 62 107 1.0 1.0 0.00 0.00 0.00 81 1018.6
20210726151255 62 90 0.0 0.0 0.00 0.00 0.00 82 1018.6
20210726150753 61 92 0.0 1.0 0.00 0.00 0.00 83 1018.6
20210726150252 61 103 0.0 1.0 0.00 0.00 0.00 84 1018.5
20210726145751 61 81 1.0 2.0 0.00 0.00 0.00 84 1018.8
20210726145249 61 79 2.0 3.0 0.00 0.00 0.00 84 1018.6
20210726144748 60 111 1.0 1.0 0.00 0.00 0.00 85 1018.7
20210726144246 60 82 0.0 0.0 0.00 0.00 0.00 85 1018.6
20210726143743 60 74 0.0 0.0 0.00 0.00 0.00 85 1018.7
20210726143242 60 87 1.0 1.0 0.00 0.00 0.00 85 1018.5
20210726142740 60 88 0.0 0.0 0.00 0.00 0.00 86 1018.8
20210726142239 60 94 0.0 0.0 0.00 0.00 0.00 87 1018.6
20210726141737 60 101 1.0 1.0 0.00 0.00 0.00 87 1018.7
20210726141235 59 72 0.0 0.0 0.00 0.00 0.00 88 1018.5
20210726140733 59 93 1.0 1.0 0.00 0.00 0.00 89 1018.3
20210726140232 59 86 0.0 1.0 0.00 0.00 0.00 88 1018.6
20210726135729 59 98 2.0 3.0 0.00 0.00 0.00 89 1018.4
20210726135229 58 101 1.0 1.0 0.00 0.00 0.00 90 1018.4
20210726134724 58 101 0.0 0.0 0.00 0.00 0.00 90 1018.5
20210726134224 58 65 2.0 2.0 0.00 0.00 0.00 90 1018.3
20210726133725 58 93 0.0 1.0 0.00 0.00 0.00 90 1018.4
20210726133223 58 121 2.0 2.0 0.00 0.00 0.00 90 1018.2
20210726132723 58 111 2.0 2.0 0.00 0.00 0.00 90 1018.2
20210726132222 58 99 0.0 0.0 0.00 0.00 0.00 90 1018.3
20210726131721 58 127 0.0 1.0 0.00 0.00 0.00 90 1018.2
20210726131220 58 89 0.0 0.0 0.00 0.00 0.00 90 1018.4
20210726130719 58 99 0.0 1.0 0.00 0.00 0.00 90 1018.2
20210726130219 58 97 0.0 0.0 0.00 0.00 0.00 89 1018.4
20210726125716 58 100 0.0 0.0 0.00 0.00 0.00 89 1018.0
20210726125214 58 69 0.0 1.0 0.00 0.00 0.00 89 1018.0
20210726124713 58 105 1.0 2.0 0.00 0.00 0.00 90 1018.2
20210726124211 58 90 1.0 1.0 0.00 0.00 0.00 90 1018.1
20210726123708 58 78 0.0 0.0 0.00 0.00 0.00 90 1018.2
20210726123207 58 87 0.0 0.0 0.00 0.00 0.00 89 1018.1
20210726122705 58 89 0.0 0.0 0.00 0.00 0.00 89 1018.1
20210726122205 58 108 0.0 0.0 0.00 0.00 0.00 89 1018.1
20210726121702 58 94 1.0 1.0 0.00 0.00 0.00 88 1018.0
20210726121200 58 93 0.0 0.0 0.00 0.00 0.00 88 1017.8
20210726120659 59 93 0.0 0.0 0.00 0.00 0.00 87 1018.2
20210726120157 59 101 0.0 1.0 0.00 0.00 0.00 86 1018.0
20210726115656 59 82 1.0 1.0 0.00 0.00 0.00 86 1018.2
20210726115157 59 77 0.0 0.0 0.00 0.00 0.00 85 1018.2
20210726114654 59 85 0.0 1.0 0.00 0.00 0.00 85 1018.3
20210726114152 59 81 1.0 1.0 0.00 0.00 0.00 84 1018.0
20210726113651 59 99 0.0 0.0 0.00 0.00 0.00 85 1018.0
20210726113151 60 96 0.0 0.0 0.00 0.00 0.00 84 1017.9
20210726112649 60 90 0.0 0.0 0.00 0.00 0.00 84 1018.0
20210726112147 60 92 0.0 1.0 0.00 0.00 0.00 84 1018.0
20210726111646 60 94 0.0 1.0 0.00 0.00 0.00 83 1017.8
20210726111145 60 76 0.0 0.0 0.00 0.00 0.00 83 1018.0
20210726110645 60 81 0.0 0.0 0.00 0.00 0.00 82 1018.1
20210726110142 60 75 0.0 1.0 0.00 0.00 0.00 82 1017.8
20210726105641 60 82 0.0 0.0 0.00 0.00 0.00 82 1018.0
20210726105140 60 87 0.0 0.0 0.00 0.00 0.00 82 1018.0
20210726104638 60 66 0.0 0.0 0.00 0.00 0.00 81 1018.1
20210726104137 61 84 0.0 0.0 0.00 0.00 0.00 81 1018.2
20210726103636 61 89 1.0 3.0 0.00 0.00 0.00 80 1017.9
20210726103136 61 98 0.0 0.0 0.00 0.00 0.00 80 1018.2
20210726102634 61 86 0.0 0.0 0.00 0.00 0.00 79 1018.0
20210726102132 62 73 1.0 1.0 0.00 0.00 0.00 79 1018.3
20210726101630 61 74 0.0 0.0 0.00 0.00 0.00 79 1018.1
20210726101130 61 89 0.0 1.0 0.00 0.00 0.00 79 1017.9
20210726100628 61 80 0.0 0.0 0.00 0.00 0.00 80 1018.1
20210726100128 62 80 0.0 0.0 0.00 0.00 0.00 79 1017.9
20210726095625 62 80 0.0 0.0 0.00 0.00 0.00 79 1017.9
20210726095124 62 80 0.0 1.0 0.00 0.00 0.00 78 1017.8
20210726094624 62 96 0.0 0.0 0.00 0.00 0.00 78 1018.1
20210726094122 63 96 1.0 1.0 0.00 0.00 0.00 77 1017.9
20210726093620 63 84 0.0 0.0 0.00 0.00 0.00 77 1018.1
20210726093119 63 95 1.0 1.0 0.00 0.00 0.00 76 1017.9
20210726092618 63 71 1.0 1.0 0.00 0.00 0.00 75 1018.1
20210726092117 63 84 0.0 1.0 0.00 0.00 0.00 76 1018.2
20210726091616 63 43 2.0 3.0 0.00 0.00 0.00 76 1018.0
20210726091113 63 98 0.0 1.0 0.00 0.00 0.00 76 1017.9
20210726090612 63 85 1.0 1.0 0.00 0.00 0.00 75 1017.9
20210726090110 64 91 1.0 2.0 0.00 0.00 0.00 75 1018.0
20210726085608 64 50 1.0 1.0 0.00 0.00 0.00 75 1018.1
20210726085107 64 67 1.0 2.0 0.00 0.00 0.00 74 1018.0
20210726084607 64 93 0.0 0.0 0.00 0.00 0.00 74 1018.1
20210726084106 64 97 0.0 1.0 0.00 0.00 0.00 74 1018.0
20210726083605 64 98 0.0 0.0 0.00 0.00 0.00 74 1017.9
20210726083103 64 79 0.0 0.0 0.00 0.00 0.00 74 1018.0
20210726082603 65 94 0.0 0.0 0.00 0.00 0.00 74 1018.1
20210726082101 65 103 0.0 1.0 0.00 0.00 0.00 74 1018.2
20210726081559 65 76 0.0 0.0 0.00 0.00 0.00 74 1018.0
20210726081057 65 102 1.0 1.0 0.00 0.00 0.00 73 1018.0
20210726080557 65 102 0.0 0.0 0.00 0.00 0.00 73 1018.0
20210726080055 66 89 0.0 0.0 0.00 0.00 0.00 72 1018.0
20210726075553 66 76 2.0 3.0 0.00 0.00 0.00 72 1018.1
20210726075052 66 72 0.0 0.0 0.00 0.00 0.00 72 1018.0
20210726074551 66 86 0.0 0.0 0.00 0.00 0.00 72 1018.1
20210726074048 66 87 0.0 1.0 0.00 0.00 0.00 72 1017.7
20210726073548 65 84 0.0 1.0 0.00 0.00 0.00 73 1017.8
20210726073047 65 84 0.0 0.0 0.00 0.00 0.00 74 1017.8
20210726072546 65 83 0.0 0.0 0.00 0.00 0.00 75 1017.7
20210726072045 66 83 0.0 0.0 0.00 0.00 0.00 74 1017.9
20210726071544 66 83 0.0 0.0 0.00 0.00 0.00 73 1017.9
20210726071043 66 83 0.0 0.0 0.00 0.00 0.00 72 1017.7
20210726070541 67 83 0.0 0.0 0.00 0.00 0.00 72 1017.7
20210726070039 67 83 0.0 0.0 0.00 0.00 0.00 71 1017.6
20210726065538 67 83 0.0 0.0 0.00 0.00 0.00 70 1017.8
20210726065037 68 84 1.0 1.0 0.00 0.00 0.00 69 1017.7
20210726064535 68 82 0.0 0.0 0.00 0.00 0.00 69 1017.5
20210726064035 68 78 0.0 0.0 0.00 0.00 0.00 70 1017.6
20210726063531 68 79 0.0 0.0 0.00 0.00 0.00 69 1017.6
20210726063030 68 79 0.0 0.0 0.00 0.00 0.00 68 1017.6
20210726062527 69 112 0.0 1.0 0.00 0.00 0.00 67 1017.7
20210726062025 69 112 0.0 0.0 0.00 0.00 0.00 67 1017.7
20210726061524 69 108 0.0 0.0 0.00 0.00 0.00 66 1017.6
20210726061024 69 108 0.0 0.0 0.00 0.00 0.00 65 1017.6
20210726060522 69 107 0.0 0.0 0.00 0.00 0.00 66 1017.5
20210726060021 69 88 0.0 1.0 0.00 0.00 0.00 66 1017.6
20210726055518 69 98 0.0 1.0 0.00 0.00 0.00 66 1017.5
20210726055019 70 88 1.0 1.0 0.00 0.00 0.00 66 1017.7
20210726054516 70 93 0.0 0.0 0.00 0.00 0.00 64 1017.6
20210726054012 70 93 0.0 0.0 0.00 0.00 0.00 64 1017.6
20210726053512 71 100 0.0 0.0 0.00 0.00 0.00 64 1017.4
20210726053009 71 100 0.0 0.0 0.00 0.00 0.00 63 1017.4
20210726052507 71 100 0.0 0.0 0.00 0.00 0.00 62 1017.3
20210726052007 72 101 0.0 1.0 0.00 0.00 0.00 61 1017.2
20210726051506 72 106 2.0 2.0 0.00 0.00 0.00 60 1017.2
20210726051004 73 101 0.0 0.0 0.00 0.00 0.00 60 1017.3
20210726050502 73 99 0.0 1.0 0.00 0.00 0.00 59 1017.2
20210726050002 73 101 0.0 1.0 0.00 0.00 0.00 59 1017.0
20210726045501 74 103 1.0 1.0 0.00 0.00 0.00 58 1017.2
20210726045000 74 96 0.0 0.0 0.00 0.00 0.00 58 1017.1
20210726044458 74 98 1.0 1.0 0.00 0.00 0.00 57 1017.1
20210726043957 74 44 1.0 1.0 0.00 0.00 0.00 56 1017.0
20210726043453 75 64 1.0 1.0 0.00 0.00 0.00 56 1016.8
20210726042949 75 112 2.0 3.0 0.00 0.00 0.00 56 1017.0
20210726042449 75 111 0.0 0.0 0.00 0.00 0.00 55 1017.1
20210726041948 75 94 1.0 1.0 0.00 0.00 0.00 54 1017.1
20210726041446 76 156 2.0 2.0 0.00 0.00 0.00 54 1016.9
20210726040945 76 97 1.0 1.0 0.00 0.00 0.00 55 1016.8
20210726040444 76 98 1.0 1.0 0.00 0.00 0.00 54 1016.8
20210726035943 76 96 1.0 1.0 0.00 0.00 0.00 53 1016.8
20210726035442 77 93 0.0 1.0 0.00 0.00 0.00 53 1016.9
20210726034942 77 113 0.0 0.0 0.00 0.00 0.00 53 1016.7
20210726034441 78 103 1.0 2.0 0.00 0.00 0.00 53 1016.4
20210726033939 78 89 0.0 1.0 0.00 0.00 0.00 52 1016.6
20210726033438 78 116 1.0 1.0 0.00 0.00 0.00 52 1016.8
20210726032938 79 138 1.0 1.0 0.00 0.00 0.00 51 1016.4
20210726032437 79 109 1.0 1.0 0.00 0.00 0.00 50 1016.7
20210726031934 80 65 2.0 2.0 0.00 0.00 0.00 50 1016.5
20210726031433 80 105 1.0 1.0 0.00 0.00 0.00 49 1016.7
20210726030932 80 96 1.0 1.0 0.00 0.00 0.00 48 1016.5
20210726030429 81 95 0.0 1.0 0.00 0.00 0.00 47 1016.3
20210726025927 81 74 0.0 0.0 0.00 0.00 0.00 47 1016.2
20210726025425 81 289 2.0 3.0 0.00 0.00 0.00 46 1016.4
20210726024925 82 141 1.0 2.0 0.00 0.00 0.00 46 1016.2
20210726024423 82 89 1.0 1.0 0.00 0.00 0.00 45 1016.3
20210726023920 82 79 1.0 2.0 0.00 0.00 0.00 44 1016.2
20210726023419 82 98 2.0 2.0 0.00 0.00 0.00 43 1016.3
20210726022918 83 102 0.0 1.0 0.00 0.00 0.00 42 1016.2
20210726022416 83 104 1.0 2.0 0.00 0.00 0.00 42 1016.2
20210726021914 83 79 0.0 1.0 0.00 0.00 0.00 43 1016.3
20210726021415 84 104 1.0 2.0 0.00 0.00 0.00 42 1016.1
20210726020913 85 101 1.0 1.0 0.00 0.00 0.00 41 1016.1
20210726020410 86 265 2.0 2.0 0.00 0.00 0.00 40 1016.2
20210726015910 86 356 4.0 8.0 0.00 0.00 0.00 39 1016.2
20210726015409 87 61 1.0 1.0 0.00 0.00 0.00 38 1016.2
20210726014906 87 103 1.0 1.0 0.00 0.00 0.00 37 1016.2
20210726014406 87 54 2.0 2.0 0.00 0.00 0.00 33 1016.1
20210726013904 87 85 1.0 1.0 0.00 0.00 0.00 33 1016.2